Regional Weather Roundup
Issued by NWS

Home | Current Version | Previous Version | Graphics & Text | Print | Product List | Glossary On
Versions: 1 2 3 4 5 6 7 8 9 10 11 12 13 14 15 16 17 18 19 20 21 22 23 24 25 26 27 28 29 30 31 32 33 34 35 36 37 38 39 40 41 42 43 44 45 46 47 48 49 50
000
ASUS43 KFSD 210210
RWRSD

WEATHER ROUNDUP FOR SOUTH DAKOTA
NATIONAL WEATHER SERVICE SIOUX FALLS SD
900 PM CDT MON OCT 20 2014

NOTE: "FAIR" INDICATES FEW OR NO CLOUDS BELOW 12,000 FEET WITH NO
SIGNIFICANT WEATHER AND/OR OBSTRUCTIONS TO VISIBILITY.


SDZ001>005-009-010-012>017-210300-
NORTHWEST AND NORTH CENTRAL SOUTH DAKOTA

CITY           SKY/WX    TMP DP  RH WIND       PRES   REMARKS
BUFFALO          N/A     59  41  51 E8        29.83F
FAITH            N/A     62  40  44 SE18      29.89F
MOBRIDGE       CLEAR     61  33  35 SE15      29.92F
$$

SDZ012>016-024>037-041>051-057-063-072>074-210300-
SOUTHWEST AND SOUTH CENTRAL SOUTH DAKOTA

CITY           SKY/WX    TMP DP  RH WIND       PRES   REMARKS
RAPID CTY ARPT CLEAR     56  44  64 CALM      29.91S
PIERRE         CLEAR     62  39  42 E13       29.93F
CUSTER         CLEAR     53  38  56 CALM      30.04S
ELLSWORTH AFB  CLEAR     62  45  53 S3        29.90S
PHILIP         CLEAR     59  41  51 E6        29.89F
PINE RIDGE     CLEAR     69  37  30 S16       29.94S
SPEARFISH      FAIR      55  37  50 S9        29.93S
WINNER         FAIR      56  39  53 SE12      29.97F
$$

SDZ004>011-016>023-039-040-210300-
NORTHEAST SOUTH DAKOTA

CITY           SKY/WX    TMP DP  RH WIND       PRES   REMARKS
ABERDEEN       CLEAR     44  34  67 SE5       30.01S
WATERTOWN      CLEAR     52  37  56 CALM      30.04R
SISSETON         N/A     42  37  82 SW5       30.03R
$$

SDZ017-020-022-023-036>040-048>070-210300-
SOUTHEAST SOUTH DAKOTA

CITY           SKY/WX    TMP DP  RH WIND       PRES   REMARKS
SIOUX FALLS    CLEAR     47  38  71 W3        30.04R
HURON          CLEAR     52  34  50 SE7       30.02S
CHAMBERLAIN    CLEAR     54  35  48 SE8       29.99S
MITCHELL       CLEAR     52  36  54 SE8       30.03S
YANKTON        CLEAR     48  36  61 CALM      30.04S
$$

ABBREVIATIONS USED IN REMARKS
   TC - TEMPERATURE IN CELSIUS
  WCI - WIND CHILL INDEX
   HX - HEAT INDEX
  VSB - VISIBILITY



USA.gov is the U.S. government's official web portal to all federal, state and local government web resources and services.